TimeEST,TemperatureF,Dew PointF,Humidity,Sea Level PressureIn,VisibilityMPH,Wind Direction,Wind SpeedMPH,Gust SpeedMPH,PrecipitationIn,Events,Conditions,WindDirDegrees,DateUTC
12:52 AM,16.0,10.0,77,29.77,9.0,Calm,Calm,-,N/A,,Overcast,0,2013-02-04 05:52:00
1:52 AM,17.1,10.9,77,29.77,4.0,WNW,3.5,-,0.00,Snow,Light Snow,290,2013-02-04 06:52:00
2:08 AM,17.6,12.2,79,29.74,2.0,West,4.6,-,0.00,Snow,Light Snow,280,2013-02-04 07:08:00
2:20 AM,17.6,12.2,79,29.74,4.0,WNW,3.5,-,0.00,Snow,Light Snow,290,2013-02-04 07:20:00
2:30 AM,19.4,12.2,74,29.73,5.0,NW,3.5,-,0.00,Snow,Light Snow,310,2013-02-04 07:30:00
2:52 AM,19.9,12.9,74,29.77,5.0,Variable,5.8,-,0.00,Snow,Light Snow,0,2013-02-04 07:52:00
3:40 AM,21.2,10.4,63,29.74,10.0,West,15.0,23.0,0.00,,Overcast,270,2013-02-04 08:40:00
3:50 AM,21.2,10.4,63,29.74,10.0,West,10.4,20.7,0.00,,Overcast,260,2013-02-04 08:50:00
3:52 AM,21.0,10.9,65,29.77,10.0,West,12.7,20.7,0.00,,Overcast,260,2013-02-04 08:52:00
6:36 AM,19.4,8.6,63,29.79,10.0,West,11.5,20.7,N/A,,Overcast,260,2013-02-04 11:36:00
6:52 AM,19.0,8.1,62,29.83,10.0,West,13.8,19.6,N/A,,Overcast,260,2013-02-04 11:52:00
7:52 AM,19.0,7.0,59,29.85,10.0,West,12.7,-,N/A,,Overcast,270,2013-02-04 12:52:00
8:52 AM,19.9,8.1,60,29.85,10.0,West,12.7,26.5,N/A,,Overcast,260,2013-02-04 13:52:00
9:44 AM,19.4,6.8,58,29.81,10.0,West,11.5,27.6,N/A,,Mostly Cloudy,270,2013-02-04 14:44:00
9:52 AM,19.9,7.0,57,29.84,10.0,West,12.7,21.9,N/A,,Mostly Cloudy,260,2013-02-04 14:52:00
10:02 AM,21.2,6.8,54,29.80,10.0,West,11.5,21.9,N/A,,Scattered Clouds,270,2013-02-04 15:02:00
10:52 AM,21.0,5.0,50,29.85,10.0,West,15.0,21.9,N/A,,Mostly Cloudy,280,2013-02-04 15:52:00
11:52 AM,21.0,6.1,53,29.84,8.0,West,18.4,-,N/A,,Overcast,260,2013-02-04 16:52:00
12:52 PM,21.9,3.0,44,29.83,10.0,WNW,10.4,21.9,0.00,,Overcast,290,2013-02-04 17:52:00
1:52 PM,23.0,9.0,55,29.84,9.0,West,13.8,23.0,0.00,,Mostly Cloudy,260,2013-02-04 18:52:00
2:52 PM,23.0,3.0,42,29.84,10.0,West,16.1,27.6,N/A,,Overcast,280,2013-02-04 19:52:00
3:52 PM,23.0,3.0,42,29.85,10.0,West,11.5,20.7,N/A,,Overcast,280,2013-02-04 20:52:00
4:52 PM,21.0,3.0,46,29.86,10.0,West,11.5,24.2,N/A,,Mostly Cloudy,270,2013-02-04 21:52:00
5:52 PM,19.9,3.0,48,29.89,10.0,West,12.7,20.7,N/A,,Mostly Cloudy,270,2013-02-04 22:52:00
6:52 PM,19.0,3.0,50,29.91,10.0,West,10.4,19.6,N/A,,Overcast,270,2013-02-04 23:52:00
7:52 PM,19.0,1.9,47,29.93,10.0,West,10.4,-,N/A,,Overcast,260,2013-02-05 00:52:00
8:52 PM,18.0,1.9,50,29.94,10.0,West,8.1,-,N/A,,Overcast,270,2013-02-05 01:52:00
9:52 PM,16.0,3.0,57,29.94,10.0,WSW,4.6,-,N/A,,Mostly Cloudy,250,2013-02-05 02:52:00
10:52 PM,15.1,3.0,59,29.94,10.0,WSW,8.1,-,N/A,,Clear,250,2013-02-05 03:52:00
11:52 PM,16.0,3.9,59,29.96,10.0,NW,3.5,-,N/A,,Overcast,310,2013-02-05 04:52:00